Hauptseite
METAR-TAF:

METAR-TAF

Flughäfen :

Glücksburg, Deutschland

Meierwik

Breite: 54-50N, Länge: 009-30E, Höhe: 27 m

Beobachtung

Neuester Wetterbericht von vor 21 Minuten, um 01:20 UTC
Wind 4 kt aus Ost
Temperatur -2°C
Luftfeuchtigkeit 63%
Luftdruck 1035 hPa
Sichtweite 10 km oder mehr
Leicht bewölkt in der Höhe von 3000 ft
Aufgelockert bewölkt in der Höhe von 13000 ft

METAR: ETGG 250120Z 10004KT 9999 FEW030 SCT130 M02/M08 Q1035 BLU+

Zeit: 02:41 (01:41 UTC)


TAF: fehlend

Wetterbeobachtungen und Prognosen von mehr als 4000 Flughäfen (METAR und TAF Bericht).

Die verfügbaren Stationen werden durch gelbe und rote Markierungen auf der Karte dargestellt.

Führen Sie die Maus auf sie, um den Namen der Station zu sehen.

Darauf klicken, um die Beobachtung von Wetterbeobachtungen und Prognosen zu sehen.

Um die Karte zu ändern : klicken Sie auf den grünen Tasten mit einem schwarzen Kreuz Zum Vergrößern, auf den grünen Button mit einem Gedankenstrich zu verkleinern, oder auf die grünen Pfeile für benachbarte Karten.


METAR-TAF: